Location: Moscow
(55.7500°N, 37.5830°E)
Time: 16:23:34
(UTC+03:00)

Transit 2A - Pass Details

Date: 01 December 2021
Orbit: 591 x 967 km, 66.7° (Epoch: 17 January)

Event Time Altitude Azimuth Distance (km) Brightness Sun altitude
Rises 23:27:10 0° 147° (SSE) 3,350 - -54.8°
Reaches altitude 10° 23:31:43 10° 112° (ESE) 2,524 - -55.1°
Maximum altitude 23:33:10 11° 98° (E) 2,487 - -55.1°
Drops below altitude 10° 23:34:38 10° 84° (E) 2,583 - -55.2°
Sets 23:39:29 0° 51° (NE) 3,606 - -55.4°
